Weather Roundup
Issued by NWS Chicago, IL

Home | Current Version | Previous Version | Text Only | Print | Product List | Glossary Off
Versions: 1 2 3 4 5 6 7 8 9 10 11 12 13 14 15 16 17 18 19 20 21 22 23 24 25 26 27 28 29 30 31 32 33 34 35 36 37 38 39 40 41 42 43 44 45 46 47 48 49 50

973
NZUS59 KLOT 260103
HRRLOT

CHICAGO AREA WEATHER ROUNDUP
NATIONAL WEATHER SERVICE CHICAGO/ROMEOVILLE IL
700 PM CST SAT FEB 25 2017

NOTE: "FAIR" INDICATES FEW OR NO CLOUDS BELOW 12,000 FEET WITH NO
SIGNIFICANT WEATHER AND/OR OBSTRUCTIONS TO VISIBILITY.

* THESE STATIONS ARE NOT UNDER NWS QUALITY CONTROL. THEY ALSO MAY NOT
  REPORT WEATHER SUCH AS PRECIPITATION OR FOG.

ILZ005-006-012>014-019>023-260200-
NORTHEAST ILLINOIS

CITY           SKY/WX    TMP DP  RH WIND       PRES   REMARKS
OHARE          PTCLDY    26  14  60 W8        29.98R WCI  18
MIDWAY         MOCLDY    26  13  57 W8        29.99R WCI  18
AURORA         CLEAR     24  15  68 W8        30.00R WCI  15
LANSING*       PTCLDY    26  17  67 W8G20     30.00R WCI  18
JOLIET*        PTCLDY    28  17  63 W6        30.02R WCI  21
WAUKEGAN       CLEAR     23  13  65 VRB5      29.96R WCI  17
DUPAGE AIRPORT CLEAR     23  13  65 W8        29.98R WCI  14
WHEELING       CLEAR     24  13  62 NW8       29.99R WCI  15
KANKAKEE*      PTCLDY    27  16  62 W10       30.02S WCI  17
MORRIS*        CLEAR     25  18  74 W6        30.01R WCI  18
LEWIS AIRPORT* CLEAR     25  18  75 NW12      30.00R WCI  14
NORTHERLY ISL    N/A     27  15  61 W13         N/A  WCI  16
$$

WIZ051-052-058>065-066-070>072-260200-
SOUTHEAST WISCONSIN

CITY           SKY/WX    TMP DP  RH WIND       PRES   REMARKS
MILWAUKEE      PTCLDY    24  11  57 W9G17     29.94R WCI  14
KENOSHA*       PTCLDY    22  13  68 W7        29.96R WCI  13
RACINE*        PTCLDY    23  12  62 W5        29.97R WCI  17
WAUKESHA       CLEAR     19  10  68 W9G16     29.95R WCI   9
WEST BEND      CLEAR     19  14  79 W3        29.93R
$$

INZ001>003-010>013-019-020-260200-
NORTHWEST INDIANA

CITY           SKY/WX    TMP DP  RH WIND       PRES   REMARKS
GARY*          MOCLDY    28  14  54 W14G29    30.00R WCI  17
MICHIGAN CITY* NOT AVBL
RENSSELAER*    NOT AVBL
VALPARAISO     CLOUDY    28  16  60 W15       29.99R WCI  16
$$

LMZ740>746-260200-
SOUTHERN LAKE MICHIGAN

STATION/POSITION TIME  SKY/WX   TEMP WIND        PRES    VSBY
                                AIR  DIR/SP/G
                 (UTC)          (F)  (DEG/KT/KT) (MB)    (MI)
HARRISON CRIB    0030            27  280/ 16/ 19   N/A
BURNHAM HARBOR   0045            27  300/  8/ 18   N/A
CALUMET HARBOR   0030            26  280/  6/ 11 1014.9R
BURNS HARBOR     0040            28  290/ 15/ 20 1015.9R
MICHIGAN CITY    0030            26  260/ 17/ 20   N/A
$$

ABBREVIATIONS USED IN REMARKS
   TC - TEMPERATURE IN CELSIUS
  WCI - WIND CHILL INDEX
   HX - HEAT INDEX
  VSB - VISIBILITY
$$




USA.gov is the U.S. government's official web portal to all federal, state and local government web resources and services.